• In Uzbekistan
  • List of Countries
  • For 7 days
  • Water Temperature
  • Satellite Maps
  • Weather Map
  • Weather Widgets
  • user-avatar
    Login

    Hourly Weather Banat

    Today, 25 June, Monday

    Time Temperature Precipitation Wind Pressure Humidity
    00:00 +38°C° 0 mm 2 mps 727 mmHg 22%
    01:00 +37°C° 0 mm 2 mps 727 mmHg 23%
    02:00 +37°C° 0 mm 2 mps 727 mmHg 24%
    03:00 +36°C° 0 mm 2 mps 727 mmHg 25%
    04:00 +35°C° 0 mm 1 mps 727 mmHg 26%
    05:00 +34°C° 0 mm 1 mps 727 mmHg 27%
    06:00 +36°C° 0 mm 1 mps 727 mmHg 24%
    07:00 +39°C° 0 mm 2 mps 727 mmHg 22%
    08:00 +41°C° 0 mm 2 mps 727 mmHg 20%
    09:00 +43°C° 0 mm 2 mps 727 mmHg 18%
    10:00 +45°C° 0 mm 3 mps 727 mmHg 16%
    11:00 +48°C° 0 mm 4 mps 727 mmHg 14%
    12:00 +48°C° 0 mm 4 mps 727 mmHg 14%
    13:00 +49°C° 0 mm 4 mps 726 mmHg 13%
    14:00 +49°C° 0 mm 5 mps 726 mmHg 13%
    15:00 +48°C° 0 mm 5 mps 725 mmHg 14%
    16:00 +48°C° 0 mm 5 mps 725 mmHg 14%
    17:00 +48°C° 0 mm 5 mps 725 mmHg 15%
    18:00 +45°C° 0 mm 4 mps 725 mmHg 17%
    19:00 +44°C° 0 mm 4 mps 724 mmHg 18%
    20:00 +42°C° 0 mm 3 mps 724 mmHg 20%
    21:00 +41°C° 0 mm 2 mps 725 mmHg 21%
    22:00 +40°C° 0 mm 2 mps 725 mmHg 22%
    23:00 +39°C° 0 mm 2 mps 725 mmHg 23%

    Tomorrow, 26 June, Tuesday

    Time Temperature Precipitation Wind Pressure Humidity
    00:00 +39°C° 0 mm 2 mps 725 mmHg 24%
    01:00 +38°C° 0 mm 2 mps 725 mmHg 25%
    02:00 +38°C° 0 mm 2 mps 725 mmHg 27%
    03:00 +37°C° 0 mm 2 mps 725 mmHg 27%
    04:00 +37°C° 0 mm 2 mps 725 mmHg 28%
    05:00 +36°C° 0 mm 2 mps 725 mmHg 29%
    06:00 +38°C° 0 mm 2 mps 725 mmHg 26%
    07:00 +40°C° 0 mm 2 mps 726 mmHg 24%
    08:00 +42°C° 0 mm 2 mps 726 mmHg 22%
    09:00 +43°C° 0 mm 2 mps 726 mmHg 20%
    10:00 +46°C° 0 mm 2 mps 726 mmHg 18%
    11:00 +48°C° 0 mm 2 mps 726 mmHg 15%
    12:00 +48°C° 0 mm 2 mps 726 mmHg 14%
    13:00 +49°C° 0 mm 2 mps 725 mmHg 13%
    14:00 +49°C° 0 mm 2 mps 725 mmHg 12%
    15:00 +49°C° 0 mm 2 mps 724 mmHg 12%
    16:00 +48°C° 0 mm 3 mps 724 mmHg 12%
    17:00 +48°C° 0 mm 3 mps 723 mmHg 12%
    18:00 +47°C° 0 mm 3 mps 724 mmHg 13%
    19:00 +46°C° 0 mm 3 mps 724 mmHg 14%
    20:00 +44°C° 0 mm 3 mps 724 mmHg 15%
    21:00 +44°C° 0 mm 3 mps 724 mmHg 18%
    22:00 +43°C° 0 mm 4 mps 725 mmHg 20%
    23:00 +42°C° 0 mm 5 mps 725 mmHg 23%

    Day after tomorrow, 27 June, Wednesday

    Time Temperature Precipitation Wind Pressure Humidity
    00:00 +41°C° 0 mm 5 mps 725 mmHg 25%
    01:00 +41°C° 0 mm 5 mps 725 mmHg 28%
    02:00 +40°C° 0 mm 5 mps 725 mmHg 31%
    03:00 +39°C° 0 mm 5 mps 725 mmHg 31%
    04:00 +38°C° 0 mm 4 mps 725 mmHg 32%
    05:00 +37°C° 0 mm 3 mps 725 mmHg 33%
    06:00 +38°C° 0 mm 4 mps 726 mmHg 30%
    07:00 +41°C° 0 mm 4 mps 726 mmHg 27%
    08:00 +42°C° 0 mm 4 mps 727 mmHg 25%
    09:00 +44°C° 0 mm 4 mps 727 mmHg 22%
    10:00 +45°C° 0 mm 4 mps 727 mmHg 20%
    11:00 +47°C° 0 mm 3 mps 727 mmHg 17%
    12:00 +48°C° 0 mm 3 mps 726 mmHg 16%
    13:00 +48°C° 0 mm 3 mps 726 mmHg 15%
    14:00 +50°C° 0 mm 3 mps 726 mmHg 14%
    15:00 +50°C° 0 mm 3 mps 725 mmHg 14%
    16:00 +49°C° 0 mm 4 mps 725 mmHg 15%
    17:00 +49°C° 0 mm 4 mps 725 mmHg 15%
    18:00 +47°C° 0 mm 6 mps 725 mmHg 18%
    19:00 +46°C° 0 mm 7 mps 726 mmHg 21%
    20:00 +44°C° 0 mm 8 mps 726 mmHg 25%
    21:00 +43°C° 0 mm 7 mps 726 mmHg 26%
    22:00 +40°C° 0 mm 6 mps 726 mmHg 27%
    23:00 +39°C° 0 mm 5 mps 726 mmHg 28%

    28 June, Thursday

    Time Temperature Precipitation Wind Pressure Humidity
    00:00 +37°C° 0 mm 5 mps 727 mmHg 32%
    01:00 +37°C° 0 mm 5 mps 727 mmHg 35%
    02:00 +36°C° 0 mm 4 mps 727 mmHg 38%
    03:00 +35°C° 0 mm 5 mps 727 mmHg 44%
    04:00 +35°C° 0 mm 5 mps 727 mmHg 50%
    05:00 +34°C° 0 mm 6 mps 727 mmHg 56%
    06:00 +34°C° 0 mm 6 mps 728 mmHg 56%
    07:00 +35°C° 0 mm 7 mps 728 mmHg 57%
    08:00 +35°C° 0 mm 7 mps 729 mmHg 58%
    09:00 +36°C° 0 mm 7 mps 729 mmHg 55%
    10:00 +38°C° 0 mm 8 mps 729 mmHg 53%
    11:00 +39°C° 0 mm 8 mps 729 mmHg 50%
    12:00 +40°C° 0 mm 7 mps 729 mmHg 47%
    13:00 +41°C° 0 mm 6 mps 728 mmHg 44%
    14:00 +41°C° 0 mm 6 mps 728 mmHg 42%
    15:00 +41°C° 0 mm 5 mps 728 mmHg 42%
    16:00 +41°C° 0 mm 5 mps 728 mmHg 42%
    17:00 +40°C° 0 mm 5 mps 727 mmHg 43%
    18:00 +40°C° 0.1 mm 4 mps 728 mmHg 44%
    19:00 +38°C° 0.1 mm 3 mps 728 mmHg 45%
    20:00 +38°C° 0.1 mm 2 mps 729 mmHg 46%
    21:00 +36°C° 1 mm 3 mps 729 mmHg 51%
    22:00 +35°C° 1 mm 3 mps 729 mmHg 55%
    23:00 +34°C° 1 mm 3 mps 729 mmHg 59%

    29 June, Friday

    Time Temperature Precipitation Wind Pressure Humidity
    00:00 +34°C° 1.4 mm 3 mps 729 mmHg 61%
    01:00 +33°C° 1.4 mm 4 mps 729 mmHg 63%
    02:00 +33°C° 1.4 mm 4 mps 728 mmHg 65%
    03:00 +32°C° 0.3 mm 4 mps 728 mmHg 66%
    04:00 +32°C° 0.3 mm 4 mps 728 mmHg 67%
    05:00 +32°C° 0.3 mm 4 mps 728 mmHg 68%
    06:00 +33°C° 0.3 mm 4 mps 729 mmHg 63%
    07:00 +35°C° 0.3 mm 5 mps 729 mmHg 59%
    08:00 +36°C° 0.3 mm 5 mps 729 mmHg 54%
    09:00 +39°C° 0 mm 5 mps 729 mmHg 49%
    10:00 +40°C° 0 mm 5 mps 729 mmHg 43%
    11:00 +42°C° 0 mm 4 mps 729 mmHg 38%
    12:00 +42°C° 0 mm 4 mps 729 mmHg 37%
    13:00 +42°C° 0 mm 4 mps 728 mmHg 36%
    14:00 +43°C° 0 mm 4 mps 728 mmHg 35%
    15:00 +42°C° 0 mm 4 mps 727 mmHg 35%
    16:00 +42°C° 0 mm 4 mps 727 mmHg 35%
    17:00 +42°C° 0 mm 3 mps 727 mmHg 36%
    18:00 +40°C° 0 mm 3 mps 727 mmHg 37%
    19:00 +39°C° 0 mm 2 mps 727 mmHg 39%
    20:00 +39°C° 0 mm 2 mps 728 mmHg 40%
    21:00 +38°C° 0.1 mm 2 mps 728 mmHg 42%
    22:00 +38°C° 0.1 mm 2 mps 728 mmHg 44%
    23:00 +37°C° 0.1 mm 2 mps 728 mmHg 45%

    30 June, Saturday

    Time Temperature Precipitation Wind Pressure Humidity
    00:00 +36°C° 0.3 mm 3 mps 728 mmHg 48%
    01:00 +36°C° 0.3 mm 3 mps 727 mmHg 51%
    02:00 +35°C° 0.3 mm 4 mps 727 mmHg 54%
    03:00 +34°C° 0.6 mm 4 mps 727 mmHg 59%
    04:00 +33°C° 0.6 mm 4 mps 727 mmHg 63%
    05:00 +32°C° 0.6 mm 4 mps 727 mmHg 68%
    06:00 +33°C° 0.5 mm 3 mps 728 mmHg 65%
    07:00 +34°C° 0.5 mm 3 mps 728 mmHg 63%
    08:00 +35°C° 0.5 mm 3 mps 729 mmHg 60%
    09:00 +37°C° 0.2 mm 3 mps 729 mmHg 54%
    10:00 +38°C° 0.2 mm 3 mps 729 mmHg 49%
    11:00 +40°C° 0.2 mm 2 mps 729 mmHg 43%
    12:00 +40°C° 0 mm 3 mps 729 mmHg 43%
    13:00 +40°C° 0 mm 3 mps 728 mmHg 43%
    14:00 +40°C° 0 mm 3 mps 728 mmHg 43%
    15:00 +39°C° 0.7 mm 3 mps 728 mmHg 46%
    16:00 +38°C° 0.7 mm 3 mps 727 mmHg 49%
    17:00 +38°C° 0.7 mm 3 mps 727 mmHg 52%
    18:00 +36°C° 1.5 mm 4 mps 727 mmHg 57%
    19:00 +35°C° 1.5 mm 5 mps 727 mmHg 62%
    20:00 +34°C° 1.5 mm 6 mps 728 mmHg 67%
    21:00 +33°C° 2.4 mm 6 mps 728 mmHg 72%
    22:00 +32°C° 2.4 mm 6 mps 728 mmHg 77%
    23:00 +29°C° 2.4 mm 6 mps 728 mmHg 81%
    Show more